Change the Weather History Date:

Saturday, November 16, 2013

  Actual Average Record
Temperature  
Mean Temperature 18 °F -  
Max Temperature 25 °F 21 °F 33 °F (2012)
Min Temperature 11 °F 11 °F -4 °F (1998)
Degree Days  
Heating Degree Days 47    
Moisture  
Dew Point 19 °F    
Average Humidity 91    
Maximum Humidity 100    
Minimum Humidity 81    
Precipitation  
Precipitation 0.00 in - - ()
Sea Level Pressure  
Sea Level Pressure 30.29 in    
Wind  
Wind Speed 8 mph ()    
Max Wind Speed 17 mph    
Max Gust Speed -    
Visibility 9.9 miles    
Events      
Averages and records for this station are not official NWS values.
T = Trace of Precipitation, MM = Missing Value Source: Averaged Metar Reports

Daily Weather History Graph

Daily Weather History Graph

Search for Another Location

Airport or City:

Trip Planner

Search our weather history database for the weather conditions in past years. The results will help you decide how hot, cold, wet, or windy it might be!

Date:

Astronomy

Nov. 16, 2013 Rise Set
Actual Time 7:30 AM CET 4:56 PM CET
Civil Twilight 6:58 AM CET 5:29 PM CET
Nautical Twilight 6:22 AM CET 6:05 PM CET
Astronomical Twilight 5:46 AM CET 6:40 PM CET
Moon 4:23 PM CET (11/16) 6:07 AM CET (11/16)
Length of Visible Light 10h 30m
Length of Day
9h 25m
Waxing Gibbous, 99% of the Moon is Illuminated
Nov 16
Waxing Gibbous
Nov 17
Full
Nov 25
Last Quarter
Dec 3
New
Dec 9
First Quarter

Hourly Weather History & Observations

Time (CET) Temp. Windchill Dew Point Humidity Pressure Visibility Wind Dir Wind Speed Gust Speed Precip Events Conditions
12:00 AM 18 °F - 17 °F 94%  in 9 mi ESE 17.3 mph - -   Scattered Clouds
12:55 AM 17.6 °F 2.2 °F 17.6 °F 100% 30.27 in - ESE 17.3 mph - N/A   Clear
1:00 AM 18 °F - 17 °F 93%  in 9 mi ESE 17.3 mph - -  
1:55 AM 17.6 °F 8.2 °F 17.6 °F 100% 30.27 in - East 6.9 mph - N/A   Clear
2:00 AM 18 °F - 18 °F 98%  in 12 mi East 6.9 mph - -  
2:55 AM 17.6 °F 5.7 °F 17.6 °F 100% 30.27 in - East 10.4 mph - N/A   Clear
3:00 AM 18 °F - 18 °F 98%  in 12 mi East 10.4 mph - -  
3:55 AM 17.6 °F 8.2 °F 17.6 °F 100% 30.27 in - East 6.9 mph - N/A   Clear
4:00 AM 18 °F - 17 °F 96%  in 12 mi East 6.9 mph - -  
4:55 AM 19.4 °F 14.3 °F 17.6 °F 93% 30.27 in - Variable 3.5 mph - N/A   Clear
5:00 AM 19 °F - 17 °F 91%  in 12 mi 3.5 mph - -  
5:55 AM 19.4 °F 7.9 °F 17.6 °F 93% 30.27 in - East 10.4 mph - N/A   Clear
6:00 AM 19 °F - 18 °F 95%  in 9 mi East 10.4 mph - -  
6:55 AM 19.4 °F 8.6 °F 17.6 °F 93% 30.30 in - ENE 9.2 mph - N/A   Clear
7:00 AM 19 °F - 18 °F 95%  in 9 mi ENE 9.2 mph - -  
7:55 AM 19.4 °F 10.4 °F 19.4 °F 100% 30.30 in - NE 6.9 mph - N/A   Clear
8:00 AM 20 °F - 19 °F 92%  in 37 mi NE 6.9 mph - -  
8:55 AM 21.2 °F 8.3 °F 19.4 °F 93% 30.30 in - ENE 13.8 mph - N/A   Clear
9:00 AM 20 °F - 19 °F 92%  in 37 mi ENE 13.8 mph - -  
9:55 AM 21.2 °F 11.7 °F 19.4 °F 93% 30.30 in - East 8.1 mph - N/A   Clear
10:00 AM 21 °F - 19 °F 88%  in 37 mi East 8.1 mph - -  
10:55 AM 21.2 °F 10.1 °F 19.4 °F 93% 30.33 in - ENE 10.4 mph - N/A   Clear
11:55 AM 23.0 °F 18.4 °F 19.4 °F 86% 30.33 in - Variable 3.5 mph - N/A   Clear
12:00 PM 22 °F - 20 °F 87%  in 37 mi 3.5 mph - -  
12:55 PM 23.0 °F 15.8 °F 21.2 °F 93% 30.30 in - ENE 5.8 mph - N/A   Clear
1:00 PM 24 °F - 21 °F 84%  in 37 mi ENE 5.8 mph - -  
1:55 PM 23.0 °F 18.4 °F 21.2 °F 93% 30.30 in - Variable 3.5 mph - N/A   Clear
2:00 PM 23 °F - 21 °F 88%  in 31 mi 3.5 mph - -   Clear
2:55 PM 24.8 °F - 21.2 °F 86% 30.30 in - Variable 2.3 mph - N/A   Clear
3:00 PM 24 °F - 22 °F 88%  in 31 mi 2.3 mph - -   Clear
3:55 PM 24.8 °F - 21.2 °F 86% 30.30 in - Variable 1.2 mph - N/A   Clear
4:00 PM 24 °F - 22 °F 88%  in 31 mi 1.2 mph - -  
4:55 PM 24.8 °F - 23.0 °F 93% 30.30 in - Variable 2.3 mph - N/A   Clear
5:00 PM 25 °F - 22 °F 85%  in 31 mi 2.3 mph - -  
5:55 PM 23.0 °F 18.4 °F 21.2 °F 93% 30.30 in - Variable 3.5 mph - N/A   Clear
6:00 PM 23 °F - 21 °F 87%  in 19 mi 3.5 mph - -  
6:55 PM 23.0 °F 18.4 °F 19.4 °F 86% 30.30 in - Variable 3.5 mph - N/A   Clear
7:00 PM 23 °F - 20 °F 81%  in 12 mi 3.5 mph - -  
7:55 PM 23.0 °F 18.4 °F 19.4 °F 86% 30.30 in - Variable 3.5 mph - N/A   Clear
8:00 PM 22 °F - 19 °F 84%  in 12 mi 3.5 mph - -  
8:55 PM 21.2 °F 11.7 °F 19.4 °F 93% 30.30 in 6.2 mi ESE 8.1 mph - N/A   Partly Cloudy
9:00 PM 22 °F - 19 °F 82%  in 9 mi ESE 8.1 mph - -   Scattered Clouds
9:55 PM 21.2 °F 10.9 °F 17.6 °F 86% 30.27 in 6.2 mi SE 9.2 mph - N/A   Partly Cloudy
10:00 PM 21 °F - 18 °F 84%  in 9 mi SE 9.2 mph - -   Scattered Clouds
10:55 PM 21.2 °F 11.7 °F 17.6 °F 86% 30.27 in 6.2 mi ESE 8.1 mph - N/A   Scattered Clouds
11:00 PM 21 °F - 18 °F 83%  in 9 mi ESE 8.1 mph - -   Partly Cloudy
11:55 PM 19.4 °F 4.5 °F 17.6 °F 93% 30.27 in 6.2 mi ESE 17.3 mph - N/A   Scattered Clouds